,,,PA_Meas_PMT16A,,PR_Meas_QMR101_102,,RH_Meas_QMH101,,SR_Meas_QMS101,,TA_Meas_QMH101,,GenWind,,GenWind,
date,time,status,PA,status,PR,status,RH,status,SR,status,TA,status,DirAvg,status,SpdAvg,
2009-03-31, 00:00:04,VALID,1008.17,VALID,0,VALID,84.7908,VALID,0,VALID,23.3415,VALID,181,VALID,0,
2009-03-31, 00:01:04,VALID,1008.13,VALID,0,VALID,84.7984,VALID,0,VALID,23.3026,VALID,298,VALID,0,
2009-03-31, 00:02:04,VALID,1008.12,VALID,0,VALID,84.8289,VALID,0,VALID,23.3415,VALID,321,VALID,0,
2009-03-31, 00:03:04,VALID,1008.07,VALID,0,VALID,84.8289,VALID,0,VALID,23.3415,VALID,316,VALID,0.958203,
2009-03-31, 00:04:04,VALID,1008.07,VALID,0,VALID,84.8213,VALID,0,VALID,23.322,VALID,278,VALID,0.351563,
2009-03-31, 00:05:04,VALID,1008.03,VALID,0,VALID,84.7755,VALID,0,VALID,23.3415,VALID,281,VALID,0.303125,
2009-03-31, 00:06:04,VALID,1008.01,VALID,0,VALID,84.7602,VALID,0,VALID,23.4017,VALID,337,VALID,0.588672,
2009-03-31, 00:07:04,VALID,1008.05,VALID,0,VALID,84.7526,VALID,0,VALID,23.361,VALID,356,VALID,0.719531,
2009-03-31, 00:08:04,VALID,1008.06,VALID,0,VALID,84.6992,VALID,0,VALID,23.3415,VALID,355,VALID,0.639844,
2009-03-31, 00:09:04,VALID,1008.02,VALID,0,VALID,84.6992,VALID,0,VALID,23.322,VALID,337,VALID,0.301172,
2009-03-31, 00:10:04,VALID,1008.03,VALID,0,VALID,84.7221,VALID,0,VALID,23.3628,VALID,302,VALID,0,
2009-03-31, 00:11:04,VALID,1008.05,VALID,0,VALID,84.7221,VALID,0,VALID,23.2831,VALID,309,VALID,0.914453,
2009-03-31, 00:12:04,VALID,1008.02,VALID,0,VALID,84.745,VALID,0,VALID,23.3043,VALID,229,VALID,0.387109,
2009-03-31, 00:13:04,VALID,1008.03,VALID,0,VALID,84.7069,VALID,0,VALID,23.2831,VALID,220,VALID,0.366016,
2009-03-31, 00:14:04,VALID,1008.03,VALID,0,VALID,84.7069,VALID,0,VALID,23.322,VALID,221,VALID,0.113672,
2009-03-31, 00:15:04,VALID,1008.06,VALID,0,VALID,84.7526,VALID,0,VALID,23.3805,VALID,221,VALID,0,
2009-03-31, 00:16:04,VALID,1008.07,VALID,0,VALID,84.7602,VALID,0,VALID,23.3805,VALID,245,VALID,0.307031,
2009-03-31, 00:17:04,VALID,1008.08,VALID,0,VALID,84.7679,VALID,0,VALID,23.4212,VALID,326,VALID,0.657031,
2009-03-31, 00:18:04,VALID,1008.09,VALID,0,VALID,84.7679,VALID,0,VALID,23.3805,VALID,355,VALID,1.13789,
2009-03-31, 00:19:04,VALID,1008.07,VALID,0,VALID,84.7831,VALID,0,VALID,23.361,VALID,352,VALID,0.730859,
2009-03-31, 00:20:04,VALID,1008.09,VALID,0,VALID,84.7374,VALID,0,VALID,23.3026,VALID,356,VALID,0.630469,
2009-03-31, 00:21:04,VALID,1008.06,VALID,0,VALID,84.7602,VALID,0,VALID,23.2831,VALID,41,VALID,0.323438,
2009-03-31, 00:22:04,VALID,1008.07,VALID,0,VALID,84.7526,VALID,0,VALID,23.2831,VALID,338,VALID,0.498047,
2009-03-31, 00:23:04,VALID,1008.06,VALID,0,VALID,84.7831,VALID,0,VALID,23.2831,VALID,319,VALID,0.0910156,
2009-03-31, 00:24:04,VALID,1008.07,VALID,0,VALID,84.7984,VALID,0,VALID,23.2848,VALID,315,VALID,0.300391,
2009-03-31, 00:25:04,VALID,1008.07,VALID,0,VALID,84.7908,VALID,0,VALID,23.2654,VALID,295,VALID,0.602734,
2009-03-31, 00:26:04,VALID,1008.07,VALID,0,VALID,84.7602,VALID,0,VALID,23.2654,VALID,298,VALID,0.764453,
2009-03-31, 00:27:04,VALID,1008.09,VALID,0,VALID,84.7145,VALID,0,VALID,23.3043,VALID,305,VALID,0.733203,
2009-03-31, 00:28:04,VALID,1008.08,VALID,0,VALID,84.6687,VALID,0,VALID,23.3433,VALID,307,VALID,0.408594,
2009-03-31, 00:29:04,VALID,1008.07,VALID,0,VALID,84.6382,VALID,0,VALID,23.361,VALID,325,VALID,0.651563,
2009-03-31, 00:30:04,VALID,1008.11,VALID,0,VALID,84.6382,VALID,0,VALID,23.3805,VALID,348,VALID,0.685156,
2009-03-31, 00:31:04,VALID,1008.11,VALID,0,VALID,84.5544,VALID,0,VALID,23.3415,VALID,356,VALID,1.47031,
2009-03-31, 00:32:04,VALID,1008.11,VALID,0,VALID,84.4857,VALID,0,VALID,23.3823,VALID,360,VALID,0.788281,
2009-03-31, 00:33:04,VALID,1008.08,VALID,0,VALID,84.4247,VALID,0,VALID,23.3415,VALID,2,VALID,0.322266,
2009-03-31, 00:34:04,VALID,1008.06,VALID,0,VALID,84.3866,VALID,0,VALID,23.322,VALID,324,VALID,1.16367,
2009-03-31, 00:35:04,VALID,1008.05,VALID,0,VALID,84.2646,VALID,0,VALID,23.2831,VALID,326,VALID,0.914063,
2009-03-31, 00:36:04,VALID,1008.05,VALID,0,VALID,84.2036,VALID,0,VALID,23.3026,VALID,310,VALID,0.637891,
2009-03-31, 00:37:04,VALID,1008.09,VALID,0,VALID,84.2112,VALID,0,VALID,23.3628,VALID,255,VALID,0.283203,
2009-03-31, 00:38:04,VALID,1008.11,VALID,0,VALID,84.2112,VALID,0,VALID,23.361,VALID,226,VALID,0.798437,
2009-03-31, 00:39:04,VALID,1008.16,VALID,0,VALID,84.1731,VALID,0,VALID,23.3823,VALID,224,VALID,0.996094,
2009-03-31, 00:40:04,VALID,1008.16,VALID,0,VALID,84.1502,VALID,0,VALID,23.4017,VALID,222,VALID,0.69375,
2009-03-31, 00:41:04,VALID,1008.13,VALID,0,VALID,84.0968,VALID,0,VALID,23.4212,VALID,222,VALID,0.165234,
2009-03-31, 00:42:04,VALID,1008.08,VALID,0,VALID,84.1197,VALID,0,VALID,23.4194,VALID,222,VALID,0,
2009-03-31, 00:43:04,VALID,1008.07,VALID,0,VALID,84.1807,VALID,0,VALID,23.4389,VALID,222,VALID,0.272266,
2009-03-31, 00:44:04,VALID,1008.06,VALID,0,VALID,84.1807,VALID,0,VALID,23.4194,VALID,314,VALID,0.329297,
2009-03-31, 00:45:04,VALID,1007.99,VALID,0,VALID,84.1807,VALID,0,VALID,23.4,VALID,307,VALID,0,
2009-03-31, 00:46:04,VALID,1007.96,VALID,0,VALID,84.2188,VALID,0,VALID,23.4194,VALID,307,VALID,0,
2009-03-31, 00:47:04,VALID,1007.95,VALID,0,VALID,84.2722,VALID,0,VALID,23.4194,VALID,307,VALID,0,
2009-03-31, 00:48:04,VALID,1007.91,VALID,0,VALID,84.318,VALID,0,VALID,23.4407,VALID,307,VALID,0,
2009-03-31, 00:49:04,VALID,1007.92,VALID,0,VALID,84.3408,VALID,0,VALID,23.4407,VALID,215,VALID,0,
2009-03-31, 00:50:04,VALID,1007.92,VALID,0,VALID,84.3256,VALID,0,VALID,23.4212,VALID,209,VALID,0,
2009-03-31, 00:51:04,VALID,1007.9,VALID,0,VALID,84.318,VALID,0,VALID,23.4194,VALID,209,VALID,0,
2009-03-31, 00:52:04,VALID,1007.87,VALID,0,VALID,84.3027,VALID,0,VALID,23.4407,VALID,209,VALID,0,
2009-03-31, 00:53:04,VALID,1007.85,VALID,0,VALID,84.3256,VALID,0,VALID,23.4797,VALID,219,VALID,0,
2009-03-31, 00:54:04,VALID,1007.83,VALID,0,VALID,84.318,VALID,0,VALID,23.4797,VALID,287,VALID,0,
2009-03-31, 00:55:04,VALID,1007.82,VALID,0,VALID,84.3408,VALID,0,VALID,23.4974,VALID,339,VALID,0.247266,
2009-03-31, 00:56:04,VALID,1007.8,VALID,0,VALID,84.3256,VALID,0,VALID,23.4992,VALID,349,VALID,0.571484,
2009-03-31, 00:57:04,VALID,1007.77,VALID,0,VALID,84.318,VALID,0,VALID,23.4389,VALID,351,VALID,0.293359,
2009-03-31, 00:58:04,VALID,1007.78,VALID,0,VALID,84.3485,VALID,0,VALID,23.4194,VALID,351,VALID,0.128906,
2009-03-31, 00:59:04,VALID,1007.73,VALID,0,VALID,84.3866,VALID,0,VALID,23.3805,VALID,349,VALID,0.230078,
2009-03-31, 01:00:04,VALID,1007.75,VALID,0,VALID,84.4323,VALID,0.105969,VALID,23.3805,VALID,349,VALID,0,
2009-03-31, 01:01:04,VALID,1007.73,VALID,0,VALID,84.4933,VALID,0,VALID,23.3628,VALID,349,VALID,0.338672,
2009-03-31, 01:02:04,VALID,1007.73,VALID,0,VALID,84.5238,VALID,0,VALID,23.3628,VALID,349,VALID,0.00195313,
2009-03-31, 01:03:04,VALID,1007.74,VALID,0,VALID,84.6001,VALID,0,VALID,23.3415,VALID,356,VALID,0.205859,
2009-03-31, 01:04:04,VALID,1007.76,VALID,0,VALID,84.6764,VALID,0,VALID,23.4017,VALID,77,VALID,0.445313,
2009-03-31, 01:05:04,VALID,1007.73,VALID,0,VALID,84.7221,VALID,0,VALID,23.3805,VALID,90,VALID,0.296094,
2009-03-31, 01:06:04,VALID,1007.72,VALID,0,VALID,84.7374,VALID,0,VALID,23.4194,VALID,90,VALID,0.324609,
2009-03-31, 01:07:04,VALID,1007.75,VALID,0,VALID,84.7831,VALID,0,VALID,23.4797,VALID,90,VALID,0.148047,
2009-03-31, 01:08:04,VALID,1007.73,VALID,0,VALID,84.8136,VALID,0,VALID,23.4407,VALID,62,VALID,0.407422,
2009-03-31, 01:09:04,VALID,1007.72,VALID,0,VALID,84.8289,VALID,0,VALID,23.4389,VALID,7,VALID,0.487891,
2009-03-31, 01:10:04,VALID,1007.72,VALID,0,VALID,84.8136,VALID,0,VALID,23.4602,VALID,1,VALID,0.416406,
2009-03-31, 01:11:04,VALID,1007.73,VALID,0,VALID,84.8518,VALID,0,VALID,23.4602,VALID,1,VALID,0.275391,
2009-03-31, 01:12:04,VALID,1007.72,VALID,0,VALID,84.8594,VALID,0,VALID,23.4194,VALID,1,VALID,0.128516,
2009-03-31, 01:13:04,VALID,1007.73,VALID,0,VALID,84.8899,VALID,0,VALID,23.4194,VALID,1,VALID,0,
2009-03-31, 01:14:04,VALID,1007.73,VALID,0,VALID,84.8975,VALID,0,VALID,23.4,VALID,1,VALID,0,
2009-03-31, 01:15:04,VALID,1007.78,VALID,0,VALID,84.9204,VALID,0,VALID,23.361,VALID,1,VALID,0,
2009-03-31, 01:16:04,VALID,1007.81,VALID,0,VALID,84.9509,VALID,0,VALID,23.3823,VALID,1,VALID,0,
2009-03-31, 01:17:04,VALID,1007.77,VALID,0,VALID,84.9509,VALID,0,VALID,23.3823,VALID,1,VALID,0,
2009-03-31, 01:18:04,VALID,1007.76,VALID,0,VALID,84.9738,VALID,0,VALID,23.3823,VALID,1,VALID,0.300781,
2009-03-31, 01:19:04,VALID,1007.78,VALID,0,VALID,84.9814,VALID,0,VALID,23.3415,VALID,1,VALID,0.363281,
2009-03-31, 01:20:04,VALID,1007.7,VALID,0,VALID,84.9738,VALID,0,VALID,23.3415,VALID,1,VALID,0.156641,
2009-03-31, 01:21:04,VALID,1007.69,VALID,0,VALID,85.0043,VALID,0,VALID,23.3628,VALID,1,VALID,0,
2009-03-31, 01:22:04,VALID,1007.66,VALID,0,VALID,84.9967,VALID,0,VALID,23.3026,VALID,1,VALID,0,
2009-03-31, 01:23:04,VALID,1007.66,VALID,0,VALID,84.9967,VALID,0,VALID,23.322,VALID,1,VALID,0,
2009-03-31, 01:24:04,VALID,1007.61,VALID,0,VALID,85.0043,VALID,0,VALID,23.3026,VALID,1,VALID,0,
2009-03-31, 01:25:04,VALID,1007.61,VALID,0,VALID,85.05,VALID,0,VALID,23.3043,VALID,11,VALID,0,
2009-03-31, 01:26:04,VALID,1007.56,VALID,0,VALID,85.05,VALID,0,VALID,23.2848,VALID,36,VALID,0,
2009-03-31, 01:27:04,VALID,1007.57,VALID,0,VALID,85.0348,VALID,0,VALID,23.2441,VALID,48,VALID,0.552344,
2009-03-31, 01:28:04,VALID,1007.57,VALID,0,VALID,85.05,VALID,0,VALID,23.2441,VALID,48,VALID,0.300391,
2009-03-31, 01:29:04,VALID,1007.57,VALID,0,VALID,85.05,VALID,0,VALID,23.2441,VALID,48,VALID,0.160938,
2009-03-31, 01:30:04,VALID,1007.54,VALID,0,VALID,85.0577,VALID,0,VALID,23.2246,VALID,48,VALID,0,
2009-03-31, 01:31:04,VALID,1007.55,VALID,0,VALID,85.0729,VALID,0,VALID,23.1857,VALID,48,VALID,0.186719,
2009-03-31, 01:32:04,VALID,1007.55,VALID,0,VALID,85.0577,VALID,0,VALID,23.2246,VALID,48,VALID,0,
2009-03-31, 01:33:04,VALID,1007.56,VALID,0,VALID,85.0729,VALID,0,VALID,23.2459,VALID,48,VALID,0,
2009-03-31, 01:34:04,VALID,1007.55,VALID,0,VALID,85.0958,VALID,0,VALID,23.2246,VALID,48,VALID,0,
2009-03-31, 01:35:04,VALID,1007.49,VALID,0,VALID,85.0958,VALID,0,VALID,23.2459,VALID,48,VALID,0,
2009-03-31, 01:36:04,VALID,1007.51,VALID,0,VALID,85.0805,VALID,0,VALID,23.2459,VALID,48,VALID,0,
2009-03-31, 01:37:04,VALID,1007.53,VALID,0,VALID,85.0882,VALID,0,VALID,23.2459,VALID,48,VALID,0,
2009-03-31, 01:38:04,VALID,1007.51,VALID,0,VALID,85.0882,VALID,0,VALID,23.2654,VALID,48,VALID,0,
2009-03-31, 01:39:04,VALID,1007.48,VALID,0,VALID,85.1034,VALID,0,VALID,23.2848,VALID,48,VALID,0,
2009-03-31, 01:40:04,VALID,1007.49,VALID,0,VALID,85.0805,VALID,0,VALID,23.2459,VALID,48,VALID,0,
2009-03-31, 01:41:04,VALID,1007.46,VALID,0,VALID,85.0729,VALID,0,VALID,23.2848,VALID,48,VALID,0.00898437,
2009-03-31, 01:42:04,VALID,1007.44,VALID,0,VALID,85.0882,VALID,0,VALID,23.2831,VALID,48,VALID,0.430469,
2009-03-31, 01:43:04,VALID,1007.45,VALID,0,VALID,85.0882,VALID,0,VALID,23.2848,VALID,48,VALID,0.514844,
2009-03-31, 01:44:04,VALID,1007.44,VALID,0,VALID,85.0805,VALID,0,VALID,23.2441,VALID,35,VALID,0.480078,
2009-03-31, 01:45:04,VALID,1007.46,VALID,0,VALID,85.0348,VALID,0,VALID,23.2654,VALID,19,VALID,0.292969,
2009-03-31, 01:46:04,VALID,1007.43,VALID,0,VALID,85.0348,VALID,0,VALID,23.2459,VALID,16,VALID,0.335156,
2009-03-31, 01:47:04,VALID,1007.44,VALID,0,VALID,85.0424,VALID,0,VALID,23.2654,VALID,356,VALID,0.389453,
2009-03-31, 01:48:04,VALID,1007.43,VALID,0,VALID,85.0348,VALID,0,VALID,23.2441,VALID,355,VALID,0.223047,
2009-03-31, 01:49:04,VALID,1007.42,VALID,0,VALID,85.0272,VALID,0,VALID,23.2848,VALID,355,VALID,0,
2009-03-31, 01:50:04,VALID,1007.39,VALID,0,VALID,85.05,VALID,0,VALID,23.2848,VALID,355,VALID,0,
2009-03-31, 01:51:04,VALID,1007.32,VALID,0,VALID,85.0577,VALID,0,VALID,23.2848,VALID,355,VALID,0,
2009-03-31, 01:52:04,VALID,1007.29,VALID,0,VALID,85.05,VALID,0,VALID,23.2441,VALID,355,VALID,0,
2009-03-31, 01:53:04,VALID,1007.28,VALID,0,VALID,85.0577,VALID,0,VALID,23.2246,VALID,355,VALID,0,
2009-03-31, 01:54:04,VALID,1007.23,VALID,0,VALID,85.05,VALID,0,VALID,23.2459,VALID,355,VALID,0,
2009-03-31, 01:55:04,VALID,1007.21,VALID,0,VALID,85.0577,VALID,0,VALID,23.2654,VALID,355,VALID,0,
2009-03-31, 01:56:04,VALID,1007.17,VALID,0,VALID,85.0958,VALID,0,VALID,23.2654,VALID,355,VALID,0,
2009-03-31, 01:57:04,VALID,1007.13,VALID,0,VALID,85.0882,VALID,0,VALID,23.2459,VALID,355,VALID,0,
2009-03-31, 01:58:04,VALID,1007.16,VALID,0,VALID,85.0882,VALID,0.105969,VALID,23.2636,VALID,355,VALID,0,
2009-03-31, 01:59:04,VALID,1007.15,VALID,0,VALID,85.1034,VALID,0.105969,VALID,23.2636,VALID,8,VALID,0,
2009-03-31, 02:00:04,VALID,1007.14,VALID,0,VALID,85.1187,VALID,0.105969,VALID,23.2246,VALID,15,VALID,0,
2009-03-31, 02:01:04,VALID,1007.13,VALID,0,VALID,85.1187,VALID,0,VALID,23.2246,VALID,16,VALID,0,
2009-03-31, 02:02:04,VALID,1007.13,VALID,0,VALID,85.1187,VALID,0.105969,VALID,23.2246,VALID,16,VALID,0,
2009-03-31, 02:03:04,VALID,1007.11,VALID,0,VALID,85.1568,VALID,0.105969,VALID,23.2636,VALID,16,VALID,0,
2009-03-31, 02:04:04,VALID,1007.09,VALID,0,VALID,85.1568,VALID,0.105969,VALID,23.2441,VALID,16,VALID,0,
2009-03-31, 02:05:04,VALID,1007.1,VALID,0,VALID,85.1644,VALID,0.105969,VALID,23.2441,VALID,16,VALID,0,
2009-03-31, 02:06:04,VALID,1007.06,VALID,0,VALID,85.1644,VALID,0.105969,VALID,23.2246,VALID,16,VALID,0,
2009-03-31, 02:07:04,VALID,1007.04,VALID,0,VALID,85.1568,VALID,0.105969,VALID,23.2246,VALID,16,VALID,0,
2009-03-31, 02:08:04,VALID,1007.06,VALID,0,VALID,85.1492,VALID,0,VALID,23.2441,VALID,16,VALID,0,
2009-03-31, 02:09:04,VALID,1007.03,VALID,0,VALID,85.1492,VALID,0,VALID,23.2441,VALID,16,VALID,0,
2009-03-31, 02:10:04,VALID,1007.04,VALID,0,VALID,85.1644,VALID,0.105969,VALID,23.2636,VALID,16,VALID,0,
2009-03-31, 02:11:04,VALID,1007.04,VALID,0,VALID,85.1492,VALID,0.105969,VALID,23.2654,VALID,16,VALID,0,
2009-03-31, 02:12:04,VALID,1007.05,VALID,0,VALID,85.1644,VALID,0.105969,VALID,23.2034,VALID,16,VALID,0,
2009-03-31, 02:13:04,VALID,1007.04,VALID,0,VALID,85.1568,VALID,0,VALID,23.2069,VALID,16,VALID,0,
2009-03-31, 02:14:04,VALID,1007.05,VALID,0,VALID,85.172,VALID,0,VALID,23.2069,VALID,16,VALID,0,
2009-03-31, 02:15:04,VALID,1007.1,VALID,0,VALID,85.172,VALID,0,VALID,23.2069,VALID,16,VALID,0,
2009-03-31, 02:16:04,VALID,1007.07,VALID,0,VALID,85.1797,VALID,0,VALID,23.2069,VALID,16,VALID,0,
2009-03-31, 02:17:04,VALID,1007.09,VALID,0,VALID,85.1949,VALID,0,VALID,23.2069,VALID,20,VALID,0,
2009-03-31, 02:18:04,VALID,1007.11,VALID,0,VALID,85.1949,VALID,0,VALID,23.2264,VALID,20,VALID,0,
2009-03-31, 02:19:04,VALID,1007.13,VALID,0,VALID,85.2025,VALID,0,VALID,23.2246,VALID,20,VALID,0,
2009-03-31, 02:20:04,VALID,1007.1,VALID,0,VALID,85.2254,VALID,0,VALID,23.2459,VALID,20,VALID,0.146875,
2009-03-31, 02:21:04,VALID,1007.09,VALID,0,VALID,85.2254,VALID,0,VALID,23.2848,VALID,99,VALID,0.682422,
2009-03-31, 02:22:04,VALID,1007.11,VALID,0,VALID,85.2254,VALID,0,VALID,23.2459,VALID,89,VALID,0.855859,
2009-03-31, 02:23:04,VALID,1007.08,VALID,0,VALID,85.2254,VALID,0,VALID,23.2459,VALID,78,VALID,0.725781,
2009-03-31, 02:24:04,VALID,1007.09,VALID,0,VALID,85.1949,VALID,0,VALID,23.2459,VALID,95,VALID,1.08867,
2009-03-31, 02:25:04,VALID,1007.06,VALID,0,VALID,85.1797,VALID,0,VALID,23.3043,VALID,87,VALID,0.834375,
2009-03-31, 02:26:04,VALID,1007.08,VALID,0,VALID,85.172,VALID,0,VALID,23.3238,VALID,94,VALID,0.869922,
2009-03-31, 02:27:04,VALID,1007.06,VALID,0,VALID,85.1492,VALID,0,VALID,23.3628,VALID,104,VALID,0.635938,
2009-03-31, 02:28:04,VALID,1007.07,VALID,0,VALID,85.1492,VALID,0,VALID,23.3823,VALID,126,VALID,0.922656,
2009-03-31, 02:29:04,VALID,1007.07,VALID,0,VALID,85.1263,VALID,0,VALID,23.3628,VALID,127,VALID,0.975391,
2009-03-31, 02:30:04,VALID,1007.08,VALID,0,VALID,85.0805,VALID,0,VALID,23.3823,VALID,114,VALID,0.728906,
2009-03-31, 02:31:04,VALID,1007.11,VALID,0,VALID,85.0272,VALID,0,VALID,23.3823,VALID,117,VALID,0.516406,
2009-03-31, 02:32:04,VALID,1007.12,VALID,0,VALID,85.0043,VALID,0,VALID,23.3823,VALID,117,VALID,0.482031,
2009-03-31, 02:33:04,VALID,1007.08,VALID,0,VALID,84.9204,VALID,0,VALID,23.4017,VALID,117,VALID,0.505469,
2009-03-31, 02:34:04,VALID,1007.11,VALID,0,VALID,84.9051,VALID,0,VALID,23.4407,VALID,117,VALID,0,
2009-03-31, 02:35:04,VALID,1007.1,VALID,0,VALID,84.8823,VALID,0,VALID,23.4407,VALID,117,VALID,0,
2009-03-31, 02:36:04,VALID,1007.12,VALID,0,VALID,84.8594,VALID,0,VALID,23.4602,VALID,117,VALID,0,
2009-03-31, 02:37:04,VALID,1007.12,VALID,0,VALID,84.8441,VALID,0,VALID,23.4407,VALID,117,VALID,0,
2009-03-31, 02:38:04,VALID,1007.14,VALID,0,VALID,84.806,VALID,0,VALID,23.4407,VALID,117,VALID,0,
2009-03-31, 02:39:04,VALID,1007.15,VALID,0,VALID,84.7755,VALID,0,VALID,23.4194,VALID,117,VALID,0.219531,
2009-03-31, 02:40:04,VALID,1007.13,VALID,0,VALID,84.7602,VALID,0,VALID,23.4017,VALID,95,VALID,0.375781,
2009-03-31, 02:41:04,VALID,1007.1,VALID,0,VALID,84.7145,VALID,0,VALID,23.4017,VALID,59,VALID,0.502734,
2009-03-31, 02:42:04,VALID,1007.11,VALID,0,VALID,84.684,VALID,0,VALID,23.4017,VALID,55,VALID,0.441016,
2009-03-31, 02:43:04,VALID,1007.11,VALID,0,VALID,84.6535,VALID,0,VALID,23.3628,VALID,53,VALID,0.29375,
2009-03-31, 02:44:04,VALID,1007.11,VALID,0,VALID,84.623,VALID,0,VALID,23.3628,VALID,41,VALID,0.416406,
2009-03-31, 02:45:04,VALID,1007.05,VALID,0,VALID,84.6077,VALID,0,VALID,23.3433,VALID,26,VALID,0.0328125,
2009-03-31, 02:46:04,VALID,1007.09,VALID,0,VALID,84.6077,VALID,0,VALID,23.3628,VALID,26,VALID,0.0742188,
2009-03-31, 02:47:04,VALID,1007.11,VALID,0,VALID,84.5849,VALID,0,VALID,23.3026,VALID,5,VALID,0.267969,
2009-03-31, 02:48:04,VALID,1007.09,VALID,0,VALID,84.5925,VALID,0,VALID,23.3238,VALID,3,VALID,0,
2009-03-31, 02:49:04,VALID,1007.08,VALID,0,VALID,84.5925,VALID,0,VALID,23.3238,VALID,3,VALID,0.3375,
2009-03-31, 02:50:04,VALID,1007.09,VALID,0,VALID,84.623,VALID,0,VALID,23.3433,VALID,3,VALID,0.272656,
2009-03-31, 02:51:04,VALID,1007.1,VALID,0,VALID,84.623,VALID,0,VALID,23.3433,VALID,3,VALID,0.135937,
2009-03-31, 02:52:04,VALID,1007.08,VALID,0,VALID,84.6306,VALID,0,VALID,23.3043,VALID,3,VALID,0,
2009-03-31, 02:53:04,VALID,1007.02,VALID,0,VALID,84.6459,VALID,0,VALID,23.3238,VALID,3,VALID,0,
2009-03-31, 02:54:04,VALID,1007.04,VALID,0,VALID,84.6611,VALID,0,VALID,23.3433,VALID,3,VALID,0,
2009-03-31, 02:55:04,VALID,1007.04,VALID,0,VALID,84.6992,VALID,0,VALID,23.3433,VALID,3,VALID,0,
2009-03-31, 02:56:04,VALID,1007.03,VALID,0,VALID,84.7221,VALID,0,VALID,23.3628,VALID,3,VALID,0,
2009-03-31, 02:57:04,VALID,1007.05,VALID,0,VALID,84.7145,VALID,0,VALID,23.3433,VALID,3,VALID,0,
2009-03-31, 02:58:04,VALID,1007.08,VALID,0,VALID,84.7221,VALID,0,VALID,23.3043,VALID,3,VALID,0,
2009-03-31, 02:59:04,VALID,1007.1,VALID,0,VALID,84.7145,VALID,0,VALID,23.3451,VALID,3,VALID,0,
2009-03-31, 03:00:04,VALID,1007.13,VALID,0,VALID,84.7221,VALID,0,VALID,23.3238,VALID,3,VALID,0,
2009-03-31, 03:01:04,VALID,1007.16,VALID,0,VALID,84.7145,VALID,0,VALID,23.3433,VALID,3,VALID,0,
2009-03-31, 03:02:04,VALID,1007.19,VALID,0,VALID,84.7145,VALID,0,VALID,23.3415,VALID,3,VALID,0,
2009-03-31, 03:03:04,VALID,1007.19,VALID,0,VALID,84.7069,VALID,0,VALID,23.3628,VALID,3,VALID,0,
2009-03-31, 03:04:04,VALID,1007.18,VALID,0,VALID,84.7221,VALID,0,VALID,23.3433,VALID,3,VALID,0,
2009-03-31, 03:05:04,VALID,1007.17,VALID,0,VALID,84.7297,VALID,0,VALID,23.3628,VALID,3,VALID,0,
2009-03-31, 03:06:04,VALID,1007.16,VALID,0,VALID,84.7297,VALID,0,VALID,23.423,VALID,3,VALID,0,
2009-03-31, 03:07:04,VALID,1007.16,VALID,0,VALID,84.745,VALID,0,VALID,23.4212,VALID,3,VALID,0,
2009-03-31, 03:08:04,VALID,1007.14,VALID,0,VALID,84.7526,VALID,0,VALID,23.4407,VALID,3,VALID,0,
2009-03-31, 03:09:04,VALID,1007.15,VALID,0,VALID,84.7221,VALID,0,VALID,23.4389,VALID,6,VALID,0,
2009-03-31, 03:10:04,VALID,1007.16,VALID,0,VALID,84.7145,VALID,0,VALID,23.4992,VALID,44,VALID,0.403125,
2009-03-31, 03:11:04,VALID,1007.19,VALID,0,VALID,84.684,VALID,0,VALID,23.4797,VALID,51,VALID,0.576563,
2009-03-31, 03:12:04,VALID,1007.19,VALID,0,VALID,84.4018,VALID,0,VALID,23.4797,VALID,60,VALID,0.232422,
2009-03-31, 03:13:04,VALID,1007.19,VALID,0,VALID,84.2951,VALID,0,VALID,23.4974,VALID,59,VALID,0.225,
2009-03-31, 03:14:04,VALID,1007.18,VALID,0,VALID,84.257,VALID,0.105969,VALID,23.4584,VALID,41,VALID,0.516797,
2009-03-31, 03:15:04,VALID,1007.2,VALID,0,VALID,84.1883,VALID,0,VALID,23.4389,VALID,27,VALID,0.622266,
2009-03-31, 03:16:04,VALID,1007.2,VALID,0,VALID,84.1121,VALID,0.105969,VALID,23.3982,VALID,52,VALID,0.595703,
2009-03-31, 03:17:04,VALID,1007.21,VALID,0,VALID,84.0892,VALID,0.105969,VALID,23.4194,VALID,48,VALID,0.302734,
2009-03-31, 03:18:04,VALID,1007.22,VALID,0,VALID,84.0739,VALID,0.105969,VALID,23.3787,VALID,48,VALID,0.0988281,
2009-03-31, 03:19:04,VALID,1007.24,VALID,0,VALID,84.1044,VALID,0.105969,VALID,23.4194,VALID,48,VALID,0.151953,
2009-03-31, 03:20:04,VALID,1007.25,VALID,0,VALID,84.1044,VALID,0.105969,VALID,23.4,VALID,48,VALID,0.0472656,
2009-03-31, 03:21:04,VALID,1007.23,VALID,0,VALID,84.1426,VALID,0,VALID,23.3787,VALID,49,VALID,0.237891,
2009-03-31, 03:22:04,VALID,1007.24,VALID,0,VALID,84.1731,VALID,0.105969,VALID,23.3805,VALID,49,VALID,0.389062,
2009-03-31, 03:23:04,VALID,1007.24,VALID,0,VALID,84.2036,VALID,0.105969,VALID,23.3805,VALID,49,VALID,0.0625,
2009-03-31, 03:24:04,VALID,1007.21,VALID,0,VALID,84.2112,VALID,0.105969,VALID,23.3805,VALID,49,VALID,0,
2009-03-31, 03:25:04,VALID,1007.23,VALID,0,VALID,84.2493,VALID,0.105969,VALID,23.361,VALID,49,VALID,0,
2009-03-31, 03:26:04,VALID,1007.23,VALID,0,VALID,84.2646,VALID,0.105969,VALID,23.3805,VALID,49,VALID,0,
2009-03-31, 03:27:04,VALID,1007.2,VALID,0,VALID,84.3027,VALID,0.105969,VALID,23.4,VALID,49,VALID,0,
2009-03-31, 03:28:04,VALID,1007.23,VALID,0,VALID,84.3027,VALID,0,VALID,23.4017,VALID,108,VALID,0.626562,
2009-03-31, 03:29:04,VALID,1007.24,VALID,0,VALID,84.2875,VALID,0,VALID,23.4212,VALID,95,VALID,0.766406,
2009-03-31, 03:30:04,VALID,1007.25,VALID,0,VALID,84.257,VALID,0,VALID,23.4212,VALID,71,VALID,0.500781,
2009-03-31, 03:31:04,VALID,1007.26,VALID,0,VALID,84.2417,VALID,0,VALID,23.4407,VALID,71,VALID,0.219531,
2009-03-31, 03:32:04,VALID,1007.28,VALID,0,VALID,84.2341,VALID,0,VALID,23.4407,VALID,71,VALID,0.128516,
2009-03-31, 03:33:04,VALID,1007.29,VALID,0,VALID,84.2112,VALID,0,VALID,23.4017,VALID,72,VALID,0.489844,
2009-03-31, 03:34:04,VALID,1007.28,VALID,0,VALID,84.1883,VALID,0,VALID,23.4212,VALID,71,VALID,0.223438,
2009-03-31, 03:35:04,VALID,1007.27,VALID,0,VALID,84.1883,VALID,0,VALID,23.4212,VALID,69,VALID,0.326172,
2009-03-31, 03:36:04,VALID,1007.29,VALID,0,VALID,84.1654,VALID,0,VALID,23.4017,VALID,69,VALID,0.451172,
2009-03-31, 03:37:04,VALID,1007.3,VALID,0,VALID,84.1654,VALID,0,VALID,23.3823,VALID,70,VALID,0.539063,
2009-03-31, 03:38:04,VALID,1007.32,VALID,0,VALID,84.1731,VALID,0,VALID,23.4017,VALID,70,VALID,0.217969,
2009-03-31, 03:39:04,VALID,1007.32,VALID,0,VALID,84.1959,VALID,0,VALID,23.3628,VALID,70,VALID,0.539844,
2009-03-31, 03:40:04,VALID,1007.29,VALID,0,VALID,84.1807,VALID,0,VALID,23.3628,VALID,72,VALID,0.487109,
2009-03-31, 03:41:04,VALID,1007.32,VALID,0,VALID,84.1807,VALID,0,VALID,23.3628,VALID,71,VALID,0.389062,
2009-03-31, 03:42:04,VALID,1007.31,VALID,0,VALID,84.1654,VALID,0,VALID,23.3433,VALID,71,VALID,0.409766,
2009-03-31, 03:43:04,VALID,1007.28,VALID,0,VALID,84.1502,VALID,0,VALID,23.361,VALID,63,VALID,0.254297,
2009-03-31, 03:44:04,VALID,1007.28,VALID,0,VALID,84.1502,VALID,0,VALID,23.3415,VALID,45,VALID,0.45625,
2009-03-31, 03:45:04,VALID,1007.25,VALID,0,VALID,84.1349,VALID,0,VALID,23.3415,VALID,21,VALID,0.889063,
2009-03-31, 03:46:04,VALID,1007.24,VALID,0,VALID,84.1197,VALID,0,VALID,23.322,VALID,43,VALID,0.420312,
2009-03-31, 03:47:04,VALID,1007.27,VALID,0,VALID,84.1121,VALID,0.105969,VALID,23.3415,VALID,42,VALID,0.286719,
2009-03-31, 03:48:04,VALID,1007.25,VALID,0,VALID,84.1121,VALID,0,VALID,23.3415,VALID,5,VALID,0.353906,
2009-03-31, 03:49:04,VALID,1007.23,VALID,0,VALID,84.1349,VALID,0.105969,VALID,23.3415,VALID,51,VALID,0.540625,
2009-03-31, 03:50:04,VALID,1007.24,VALID,0,VALID,84.1349,VALID,0.105969,VALID,23.3415,VALID,65,VALID,0.0382813,